contact:dominique.lefevre@mio.osupytheas.fr, maurice.libes@osupytheas.fr, didier.mallarino@osupytheas.fr
Project:EMSO http://www.emso-fr.org/EMSO-France
Depth: 2436.0 m
Title:EMSO Ligure Ouest : Data MII capteur MICROCAT
DateTime_Computer,Latitude,Longitude,Temperature,Conductivity,Pressure,DateTime_Instrument
DateTime_Computer,Latitude,Longitude,degC,S m-1,dbar,DateTime_Instrument
2021-05-13T00:02:31Z,42.805,6.029,13.2986,4.60000,2470.646,2021-5-13T02:03:42Z
2021-05-13T00:05:34Z,42.805,6.029,13.2992,4.60000,2470.67,2021-5-13T02:06:45Z
2021-05-13T00:08:37Z,42.805,6.029,13.2988,4.60002,2470.646,2021-5-13T02:09:48Z
2021-05-13T00:11:41Z,42.805,6.029,13.2993,4.59999,2470.624,2021-5-13T02:12:51Z
2021-05-13T00:14:44Z,42.805,6.029,13.2988,4.60002,2470.684,2021-5-13T02:15:54Z
2021-05-13T00:17:47Z,42.805,6.029,13.2992,4.60000,2470.661,2021-5-13T02:18:58Z
2021-05-13T00:20:50Z,42.805,6.029,13.2991,4.59999,2470.646,2021-5-13T02:22:01Z
2021-05-13T00:23:53Z,42.805,6.029,13.2990,4.60001,2470.67,2021-5-13T02:25:04Z
2021-05-13T00:26:56Z,42.805,6.029,13.2986,4.59996,2470.624,2021-5-13T02:28:07Z
2021-05-13T00:29:59Z,42.805,6.029,13.2991,4.59998,2470.684,2021-5-13T02:31:10Z
2021-05-13T00:33:02Z,42.805,6.029,13.2996,4.60001,2470.6,2021-5-13T02:34:13Z
2021-05-13T00:36:05Z,42.805,6.029,13.2986,4.60001,2470.624,2021-5-13T02:37:16Z
2021-05-13T00:39:09Z,42.805,6.029,13.2991,4.59999,2470.637,2021-5-13T02:40:19Z
2021-05-13T00:42:12Z,42.805,6.029,13.2993,4.60004,2470.614,2021-5-13T02:43:23Z
2021-05-13T00:45:15Z,42.805,6.029,13.2988,4.59999,2470.661,2021-5-13T02:46:26Z
2021-05-13T00:48:18Z,42.805,6.029,13.2991,4.60006,2470.637,2021-5-13T02:49:29Z
2021-05-13T00:51:21Z,42.805,6.029,13.2995,4.60008,2470.614,2021-5-13T02:52:32Z
2021-05-13T00:54:24Z,42.805,6.029,13.2994,4.60005,2470.646,2021-5-13T02:55:35Z
2021-05-13T00:57:27Z,42.805,6.029,13.2991,4.60005,2470.624,2021-5-13T02:58:38Z
2021-05-13T01:00:30Z,42.805,6.029,13.2991,4.60008,2470.646,2021-5-13T03:01:41Z
2021-05-13T01:03:34Z,42.805,6.029,13.2993,4.60006,2470.6,2021-5-13T03:04:44Z
2021-05-13T01:06:37Z,42.805,6.029,13.2996,4.60010,2470.614,2021-5-13T03:07:48Z
2021-05-13T01:09:40Z,42.805,6.029,13.2989,4.60001,2470.624,2021-5-13T03:10:51Z
2021-05-13T01:12:43Z,42.805,6.029,13.2991,4.60006,2470.6,2021-5-13T03:13:54Z
2021-05-13T01:15:46Z,42.805,6.029,13.2991,4.60002,2470.624,2021-5-13T03:16:57Z
2021-05-13T01:18:49Z,42.805,6.029,13.2991,4.60009,2470.624,2021-5-13T03:20:00Z
2021-05-13T01:21:52Z,42.805,6.029,13.2996,4.60003,2470.646,2021-5-13T03:23:03Z
2021-05-13T01:24:55Z,42.805,6.029,13.2992,4.60007,2470.577,2021-5-13T03:26:06Z
2021-05-13T01:27:59Z,42.805,6.029,13.3000,4.60009,2470.614,2021-5-13T03:29:09Z
2021-05-13T01:31:02Z,42.805,6.029,13.2991,4.60003,2470.614,2021-5-13T03:32:13Z
2021-05-13T01:34:05Z,42.805,6.029,13.2991,4.60001,2470.614,2021-5-13T03:35:16Z
2021-05-13T01:37:08Z,42.805,6.029,13.2989,4.60006,2470.624,2021-5-13T03:38:19Z
2021-05-13T01:40:11Z,42.805,6.029,13.2994,4.60001,2470.661,2021-5-13T03:41:22Z
2021-05-13T01:43:14Z,42.805,6.029,13.2993,4.60003,2470.637,2021-5-13T03:44:25Z
2021-05-13T01:46:17Z,42.805,6.029,13.2999,4.60008,2470.6,2021-5-13T03:47:28Z
2021-05-13T01:49:20Z,42.805,6.029,13.2990,4.60006,2470.6,2021-5-13T03:50:31Z
2021-05-13T01:52:24Z,42.805,6.029,13.2995,4.60004,2470.614,2021-5-13T03:53:34Z
2021-05-13T01:55:27Z,42.805,6.029,13.2994,4.59999,2470.614,2021-5-13T03:56:38Z
2021-05-13T01:58:30Z,42.805,6.029,13.2994,4.60004,2470.624,2021-5-13T03:59:41Z
2021-05-13T02:01:33Z,42.805,6.029,13.2991,4.60006,2470.577,2021-5-13T04:02:44Z
2021-05-13T02:04:36Z,42.805,6.029,13.2994,4.60006,2470.6,2021-5-13T04:05:47Z
2021-05-13T02:07:39Z,42.805,6.029,13.2997,4.60004,2470.6,2021-5-13T04:08:50Z
2021-05-13T02:10:42Z,42.805,6.029,13.2998,4.60010,2470.6,2021-5-13T04:11:53Z
2021-05-13T02:13:45Z,42.805,6.029,13.2992,4.60010,2470.567,2021-5-13T04:14:56Z
2021-05-13T02:16:49Z,42.805,6.029,13.2991,4.60003,2470.591,2021-5-13T04:17:59Z
2021-05-13T02:19:52Z,42.805,6.029,13.2993,4.60003,2470.577,2021-5-13T04:21:02Z
2021-05-13T02:22:55Z,42.805,6.029,13.2996,4.60005,2470.577,2021-5-13T04:24:06Z
2021-05-13T02:25:58Z,42.805,6.029,13.2995,4.60009,2470.591,2021-5-13T04:27:09Z
2021-05-13T02:29:01Z,42.805,6.029,13.2993,4.60003,2470.577,2021-5-13T04:30:12Z
2021-05-13T02:32:04Z,42.805,6.029,13.2994,4.60005,2470.614,2021-5-13T04:33:15Z
2021-05-13T02:35:07Z,42.805,6.029,13.2994,4.60007,2470.6,2021-5-13T04:36:18Z
2021-05-13T02:38:10Z,42.805,6.029,13.2991,4.60004,2470.624,2021-5-13T04:39:21Z
2021-05-13T02:41:13Z,42.805,6.029,13.2996,4.60004,2470.577,2021-5-13T04:42:24Z
2021-05-13T02:44:17Z,42.805,6.029,13.2993,4.60005,2470.591,2021-5-13T04:45:27Z
2021-05-13T02:47:20Z,42.805,6.029,13.2992,4.60008,2470.6,2021-5-13T04:48:31Z
2021-05-13T02:50:23Z,42.805,6.029,13.2996,4.60002,2470.553,2021-5-13T04:51:34Z
2021-05-13T02:53:26Z,42.805,6.029,13.2996,4.60009,2470.6,2021-5-13T04:54:37Z
2021-05-13T02:56:29Z,42.805,6.029,13.2993,4.60005,2470.614,2021-5-13T04:57:40Z
2021-05-13T02:59:32Z,42.805,6.029,13.2994,4.60009,2470.6,2021-5-13T05:00:43Z
2021-05-13T03:02:35Z,42.805,6.029,13.2993,4.60005,2470.577,2021-5-13T05:03:46Z
2021-05-13T03:05:38Z,42.805,6.029,13.2998,4.60009,2470.6,2021-5-13T05:06:49Z
2021-05-13T03:08:42Z,42.805,6.029,13.2996,4.60006,2470.614,2021-5-13T05:09:52Z
2021-05-13T03:11:45Z,42.805,6.029,13.2996,4.60006,2470.577,2021-5-13T05:12:56Z
2021-05-13T03:14:48Z,42.805,6.029,13.2994,4.60005,2470.577,2021-5-13T05:15:59Z
2021-05-13T03:17:51Z,42.805,6.029,13.2997,4.60006,2470.577,2021-5-13T05:19:02Z
2021-05-13T03:20:54Z,42.805,6.029,13.2995,4.60009,2470.577,2021-5-13T05:22:05Z
2021-05-13T03:23:57Z,42.805,6.029,13.2998,4.60007,2470.577,2021-5-13T05:25:08Z
2021-05-13T03:27:00Z,42.805,6.029,13.2994,4.60005,2470.577,2021-5-13T05:28:11Z
2021-05-13T03:30:03Z,42.805,6.029,13.2996,4.60006,2470.6,2021-5-13T05:31:14Z
2021-05-13T03:33:07Z,42.805,6.029,13.2993,4.60008,2470.614,2021-5-13T05:34:17Z
2021-05-13T03:36:10Z,42.805,6.029,13.2993,4.60009,2470.577,2021-5-13T05:37:20Z
2021-05-13T03:39:13Z,42.805,6.029,13.2991,4.60001,2470.637,2021-5-13T05:40:24Z
2021-05-13T03:42:16Z,42.805,6.029,13.2994,4.60003,2470.624,2021-5-13T05:43:27Z
2021-05-13T03:45:19Z,42.805,6.029,13.2996,4.60007,2470.6,2021-5-13T05:46:30Z
2021-05-13T03:48:22Z,42.805,6.029,13.2996,4.60008,2470.614,2021-5-13T05:49:33Z
2021-05-13T03:51:25Z,42.805,6.029,13.2996,4.60006,2470.591,2021-5-13T05:52:36Z
2021-05-13T03:54:28Z,42.805,6.029,13.2998,4.60006,2470.6,2021-5-13T05:55:39Z
2021-05-13T03:57:32Z,42.805,6.029,13.2994,4.60009,2470.6,2021-5-13T05:58:42Z
2021-05-13T04:00:35Z,42.805,6.029,13.2996,4.60002,2470.614,2021-5-13T06:01:45Z
2021-05-13T04:03:38Z,42.805,6.029,13.2995,4.60010,2470.637,2021-5-13T06:04:49Z
2021-05-13T04:06:41Z,42.805,6.029,13.2995,4.60013,2470.6,2021-5-13T06:07:52Z
2021-05-13T04:09:44Z,42.805,6.029,13.2996,4.60008,2470.614,2021-5-13T06:10:55Z
2021-05-13T04:12:47Z,42.805,6.029,13.2990,4.60004,2470.614,2021-5-13T06:13:58Z
2021-05-13T04:15:50Z,42.805,6.029,13.2996,4.60006,2470.577,2021-5-13T06:17:01Z
2021-05-13T04:18:53Z,42.805,6.029,13.2995,4.60006,2470.577,2021-5-13T06:20:04Z
2021-05-13T04:21:56Z,42.805,6.029,13.2998,4.60010,2470.577,2021-5-13T06:23:07Z
2021-05-13T04:25:00Z,42.805,6.029,13.2998,4.60008,2470.624,2021-5-13T06:26:10Z
2021-05-13T04:28:03Z,42.805,6.029,13.2995,4.60009,2470.6,2021-5-13T06:29:14Z
2021-05-13T04:31:06Z,42.805,6.029,13.3001,4.60009,2470.624,2021-5-13T06:32:17Z
2021-05-13T04:34:09Z,42.805,6.029,13.2995,4.60006,2470.637,2021-5-13T06:35:20Z
2021-05-13T04:37:12Z,42.805,6.029,13.2996,4.60009,2470.624,2021-5-13T06:38:23Z
2021-05-13T04:40:15Z,42.805,6.029,13.2995,4.60009,2470.624,2021-5-13T06:41:26Z
2021-05-13T04:43:18Z,42.805,6.029,13.2995,4.60010,2470.624,2021-5-13T06:44:29Z
2021-05-13T04:46:21Z,42.805,6.029,13.2996,4.60003,2470.646,2021-5-13T06:47:32Z
2021-05-13T04:49:25Z,42.805,6.029,13.2996,4.60006,2470.614,2021-5-13T06:50:35Z
2021-05-13T04:52:28Z,42.805,6.029,13.2998,4.60013,2470.646,2021-5-13T06:53:39Z
2021-05-13T04:55:31Z,42.805,6.029,13.2995,4.60003,2470.637,2021-5-13T06:56:42Z
2021-05-13T04:58:34Z,42.805,6.029,13.2995,4.60011,2470.614,2021-5-13T06:59:45Z
2021-05-13T05:01:37Z,42.805,6.029,13.2998,4.60017,2470.624,2021-5-13T07:02:48Z
2021-05-13T05:04:40Z,42.805,6.029,13.2998,4.60008,2470.637,2021-5-13T07:05:51Z
2021-05-13T05:07:43Z,42.805,6.029,13.2995,4.60005,2470.6,2021-5-13T07:08:54Z
2021-05-13T05:10:46Z,42.805,6.029,13.3001,4.60012,2470.637,2021-5-13T07:11:57Z
2021-05-13T05:13:50Z,42.805,6.029,13.2995,4.60016,2470.637,2021-5-13T07:15:00Z
2021-05-13T05:16:53Z,42.805,6.029,13.2993,4.60003,2470.6,2021-5-13T07:18:04Z
2021-05-13T05:19:56Z,42.805,6.029,13.2994,4.60009,2470.624,2021-5-13T07:21:07Z
2021-05-13T05:22:59Z,42.805,6.029,13.3001,4.60011,2470.577,2021-5-13T07:24:10Z
2021-05-13T05:26:02Z,42.805,6.029,13.2995,4.60007,2470.624,2021-5-13T07:27:13Z
2021-05-13T05:29:05Z,42.805,6.029,13.3000,4.60008,2470.624,2021-5-13T07:30:16Z
2021-05-13T05:32:08Z,42.805,6.029,13.2996,4.60009,2470.637,2021-5-13T07:33:19Z
2021-05-13T05:35:11Z,42.805,6.029,13.2994,4.60004,2470.624,2021-5-13T07:36:22Z
2021-05-13T05:38:15Z,42.805,6.029,13.2998,4.60009,2470.624,2021-5-13T07:39:25Z
2021-05-13T05:41:18Z,42.805,6.029,13.2999,4.60008,2470.637,2021-5-13T07:42:29Z
2021-05-13T05:44:21Z,42.805,6.029,13.2996,4.60004,2470.6,2021-5-13T07:45:32Z
2021-05-13T05:47:24Z,42.805,6.029,13.2997,4.60004,2470.577,2021-5-13T07:48:35Z
2021-05-13T05:50:27Z,42.805,6.029,13.2996,4.60009,2470.637,2021-5-13T07:51:38Z
2021-05-13T05:53:30Z,42.805,6.029,13.2999,4.60008,2470.624,2021-5-13T07:54:41Z
2021-05-13T05:56:33Z,42.805,6.029,13.2998,4.60009,2470.577,2021-5-13T07:57:44Z
2021-05-13T05:59:36Z,42.805,6.029,13.2998,4.60011,2470.624,2021-5-13T08:00:47Z
2021-05-13T06:02:40Z,42.805,6.029,13.3001,4.60014,2470.624,2021-5-13T08:03:50Z
2021-05-13T06:05:43Z,42.805,6.029,13.2998,4.60008,2470.646,2021-5-13T08:06:54Z
2021-05-13T06:08:46Z,42.805,6.029,13.2993,4.60011,2470.661,2021-5-13T08:09:57Z
2021-05-13T06:11:49Z,42.805,6.029,13.3000,4.60011,2470.661,2021-5-13T08:13:00Z
2021-05-13T06:14:52Z,42.805,6.029,13.2998,4.60011,2470.637,2021-5-13T08:16:03Z
2021-05-13T06:17:55Z,42.805,6.029,13.2996,4.60013,2470.646,2021-5-13T08:19:06Z
2021-05-13T06:20:58Z,42.805,6.029,13.3002,4.60016,2470.661,2021-5-13T08:22:09Z
2021-05-13T06:24:01Z,42.805,6.029,13.2994,4.60011,2470.67,2021-5-13T08:25:12Z
2021-05-13T06:27:04Z,42.805,6.029,13.2998,4.60010,2470.684,2021-5-13T08:28:15Z
2021-05-13T06:30:08Z,42.805,6.029,13.3000,4.60007,2470.646,2021-5-13T08:31:18Z
2021-05-13T06:33:11Z,42.805,6.029,13.3001,4.60008,2470.693,2021-5-13T08:34:22Z
2021-05-13T06:36:14Z,42.805,6.029,13.2995,4.60005,2470.646,2021-5-13T08:37:25Z
2021-05-13T06:39:17Z,42.805,6.029,13.2995,4.60014,2470.67,2021-5-13T08:40:28Z
2021-05-13T06:42:20Z,42.805,6.029,13.2995,4.60009,2470.637,2021-5-13T08:43:31Z
2021-05-13T06:45:23Z,42.805,6.029,13.2997,4.60013,2470.717,2021-5-13T08:46:34Z
2021-05-13T06:48:26Z,42.805,6.029,13.2996,4.60010,2470.684,2021-5-13T08:49:37Z
2021-05-13T06:51:29Z,42.805,6.029,13.2999,4.60012,2470.661,2021-5-13T08:52:40Z
2021-05-13T06:54:33Z,42.805,6.029,13.2998,4.60010,2470.67,2021-5-13T08:55:43Z
2021-05-13T06:57:36Z,42.805,6.029,13.2997,4.60008,2470.684,2021-5-13T08:58:47Z
2021-05-13T07:00:39Z,42.805,6.029,13.2993,4.60011,2470.67,2021-5-13T09:01:50Z
2021-05-13T07:03:42Z,42.805,6.029,13.3002,4.60011,2470.707,2021-5-13T09:04:53Z
2021-05-13T07:06:45Z,42.805,6.029,13.2998,4.60008,2470.693,2021-5-13T09:07:56Z
2021-05-13T07:09:48Z,42.805,6.029,13.2997,4.60009,2470.693,2021-5-13T09:10:59Z
2021-05-13T07:12:51Z,42.805,6.029,13.2992,4.60011,2470.67,2021-5-13T09:14:02Z
2021-05-13T07:15:54Z,42.805,6.029,13.2996,4.60010,2470.693,2021-5-13T09:17:05Z
2021-05-13T07:18:58Z,42.805,6.029,13.2990,4.60010,2470.67,2021-5-13T09:20:08Z
2021-05-13T07:22:01Z,42.805,6.029,13.2996,4.60016,2470.684,2021-5-13T09:23:12Z
2021-05-13T07:25:04Z,42.805,6.029,13.2996,4.60005,2470.693,2021-5-13T09:26:15Z
2021-05-13T07:28:07Z,42.805,6.029,13.3002,4.60022,2470.684,2021-5-13T09:29:18Z
2021-05-13T07:31:10Z,42.805,6.029,13.3000,4.60009,2470.67,2021-5-13T09:32:21Z
2021-05-13T07:34:13Z,42.805,6.029,13.2999,4.60011,2470.707,2021-5-13T09:35:24Z
2021-05-13T07:37:16Z,42.805,6.029,13.2996,4.60017,2470.67,2021-5-13T09:38:27Z
2021-05-13T07:40:19Z,42.805,6.029,13.2997,4.60011,2470.684,2021-5-13T09:41:30Z
2021-05-13T07:43:23Z,42.805,6.029,13.2993,4.60013,2470.693,2021-5-13T09:44:33Z
2021-05-13T07:46:26Z,42.805,6.029,13.2995,4.60009,2470.67,2021-5-13T09:47:37Z
2021-05-13T07:49:29Z,42.805,6.029,13.3003,4.60011,2470.67,2021-5-13T09:50:40Z
2021-05-13T07:52:32Z,42.805,6.029,13.2998,4.60004,2470.707,2021-5-13T09:53:43Z
2021-05-13T07:55:35Z,42.805,6.029,13.2999,4.60011,2470.67,2021-5-13T09:56:46Z
2021-05-13T07:58:38Z,42.805,6.029,13.2999,4.60017,2470.67,2021-5-13T09:59:49Z
2021-05-13T08:01:41Z,42.805,6.029,13.2998,4.60012,2470.707,2021-5-13T10:02:52Z
2021-05-13T08:04:44Z,42.805,6.029,13.2998,4.60015,2470.693,2021-5-13T10:05:55Z
2021-05-13T08:07:48Z,42.805,6.029,13.2998,4.60008,2470.693,2021-5-13T10:08:58Z
2021-05-13T08:10:51Z,42.805,6.029,13.2993,4.60006,2470.717,2021-5-13T10:12:02Z
2021-05-13T08:13:54Z,42.805,6.029,13.2994,4.60006,2470.684,2021-5-13T10:15:05Z
2021-05-13T08:16:57Z,42.805,6.029,13.2994,4.60011,2470.661,2021-5-13T10:18:08Z
2021-05-13T08:20:00Z,42.805,6.029,13.2992,4.60011,2470.67,2021-5-13T10:21:11Z
2021-05-13T08:23:03Z,42.805,6.029,13.3000,4.60011,2470.684,2021-5-13T10:24:14Z
2021-05-13T08:26:06Z,42.805,6.029,13.2998,4.60011,2470.684,2021-5-13T10:27:17Z
2021-05-13T08:29:09Z,42.805,6.029,13.2999,4.60006,2470.646,2021-5-13T10:30:20Z
2021-05-13T08:32:13Z,42.805,6.029,13.2996,4.60019,2470.684,2021-5-13T10:33:23Z
2021-05-13T08:35:16Z,42.805,6.029,13.2996,4.60010,2470.693,2021-5-13T10:36:27Z
2021-05-13T08:38:19Z,42.805,6.029,13.2998,4.60014,2470.707,2021-5-13T10:39:30Z
2021-05-13T08:41:22Z,42.805,6.029,13.2998,4.60010,2470.67,2021-5-13T10:42:33Z
2021-05-13T08:44:25Z,42.805,6.029,13.3000,4.60006,2470.684,2021-5-13T10:45:36Z
2021-05-13T08:47:28Z,42.805,6.029,13.2998,4.60014,2470.684,2021-5-13T10:48:39Z
2021-05-13T08:50:31Z,42.805,6.029,13.2996,4.60022,2470.646,2021-5-13T10:51:42Z
2021-05-13T08:53:35Z,42.805,6.029,13.2995,4.60010,2470.661,2021-5-13T10:54:45Z
2021-05-13T08:56:38Z,42.805,6.029,13.2998,4.60007,2470.684,2021-5-13T10:57:48Z
2021-05-13T08:59:41Z,42.805,6.029,13.2995,4.60009,2470.661,2021-5-13T11:00:52Z
2021-05-13T09:02:44Z,42.805,6.029,13.3000,4.60011,2470.6,2021-5-13T11:03:55Z
2021-05-13T09:05:47Z,42.805,6.029,13.2998,4.60014,2470.67,2021-5-13T11:06:58Z
2021-05-13T09:08:50Z,42.805,6.029,13.2998,4.60008,2470.684,2021-5-13T11:10:01Z
2021-05-13T09:11:53Z,42.805,6.029,13.2998,4.60011,2470.646,2021-5-13T11:13:04Z
2021-05-13T09:14:56Z,42.805,6.029,13.2998,4.60014,2470.67,2021-5-13T11:16:07Z
2021-05-13T09:17:59Z,42.805,6.029,13.2999,4.60007,2470.633,2021-5-13T11:19:10Z
2021-05-13T09:21:03Z,42.805,6.029,13.2998,4.60018,2470.624,2021-5-13T11:22:13Z
2021-05-13T09:24:06Z,42.805,6.029,13.3000,4.60011,2470.646,2021-5-13T11:25:17Z
2021-05-13T09:27:09Z,42.805,6.029,13.2993,4.60014,2470.67,2021-5-13T11:28:20Z
2021-05-13T09:30:12Z,42.805,6.029,13.2996,4.60008,2470.661,2021-5-13T11:31:23Z
2021-05-13T09:33:15Z,42.805,6.029,13.2999,4.60009,2470.624,2021-5-13T11:34:26Z
2021-05-13T09:36:18Z,42.805,6.029,13.2997,4.60010,2470.67,2021-5-13T11:37:29Z
2021-05-13T09:39:21Z,42.805,6.029,13.3000,4.60006,2470.646,2021-5-13T11:40:32Z
2021-05-13T09:42:25Z,42.805,6.029,13.2998,4.60014,2470.646,2021-5-13T11:43:35Z
2021-05-13T09:45:28Z,42.805,6.029,13.2998,4.60010,2470.624,2021-5-13T11:46:39Z
2021-05-13T09:48:31Z,42.805,6.029,13.3000,4.60011,2470.637,2021-5-13T11:49:42Z
2021-05-13T09:51:34Z,42.805,6.029,13.3000,4.60013,2470.661,2021-5-13T11:52:45Z
2021-05-13T09:54:37Z,42.805,6.029,13.2998,4.60006,2470.646,2021-5-13T11:55:48Z
2021-05-13T09:57:40Z,42.805,6.029,13.2998,4.60014,2470.624,2021-5-13T11:58:51Z
2021-05-13T10:00:43Z,42.805,6.029,13.2997,4.60014,2470.624,2021-5-13T12:01:54Z
2021-05-13T10:03:46Z,42.805,6.029,13.2998,4.60010,2470.624,2021-5-13T12:04:57Z
2021-05-13T10:06:50Z,42.805,6.029,13.3000,4.60014,2470.586,2021-5-13T12:08:00Z
2021-05-13T10:09:53Z,42.805,6.029,13.3000,4.60016,2470.6,2021-5-13T12:11:04Z
2021-05-13T10:12:56Z,42.805,6.029,13.2998,4.60014,2470.6,2021-5-13T12:14:07Z
2021-05-13T10:15:59Z,42.805,6.029,13.2996,4.60006,2470.6,2021-5-13T12:17:10Z
2021-05-13T10:19:02Z,42.805,6.029,13.3000,4.60009,2470.6,2021-5-13T12:20:13Z
2021-05-13T10:22:05Z,42.805,6.029,13.2996,4.60011,2470.624,2021-5-13T12:23:16Z
2021-05-13T10:25:08Z,42.805,6.029,13.3004,4.60016,2470.614,2021-5-13T12:26:19Z
2021-05-13T10:28:12Z,42.805,6.029,13.2998,4.60011,2470.637,2021-5-13T12:29:22Z
2021-05-13T10:31:15Z,42.805,6.029,13.3002,4.60007,2470.624,2021-5-13T12:32:25Z
2021-05-13T10:34:18Z,42.805,6.029,13.2998,4.60014,2470.624,2021-5-13T12:35:29Z
2021-05-13T10:37:21Z,42.805,6.029,13.2997,4.60006,2470.637,2021-5-13T12:38:32Z
2021-05-13T10:40:24Z,42.805,6.029,13.2994,4.60005,2470.637,2021-5-13T12:41:35Z
2021-05-13T10:43:27Z,42.805,6.029,13.2996,4.60006,2470.6,2021-5-13T12:44:38Z
2021-05-13T10:46:30Z,42.805,6.029,13.2996,4.60005,2470.6,2021-5-13T12:47:41Z
2021-05-13T10:49:33Z,42.805,6.029,13.2998,4.60009,2470.614,2021-5-13T12:50:44Z
2021-05-13T10:52:37Z,42.805,6.029,13.2992,4.60011,2470.624,2021-5-13T12:53:47Z
2021-05-13T10:55:40Z,42.805,6.029,13.2995,4.60005,2470.6,2021-5-13T12:56:50Z
2021-05-13T10:58:43Z,42.805,6.029,13.2998,4.60008,2470.6,2021-5-13T12:59:54Z
2021-05-13T11:01:46Z,42.805,6.029,13.2994,4.60006,2470.637,2021-5-13T13:02:57Z
2021-05-13T11:04:49Z,42.805,6.029,13.3000,4.60006,2470.577,2021-5-13T13:06:00Z
2021-05-13T11:07:52Z,42.805,6.029,13.2995,4.60013,2470.624,2021-5-13T13:09:03Z
2021-05-13T11:10:55Z,42.805,6.029,13.2998,4.60003,2470.591,2021-5-13T13:12:06Z
2021-05-13T11:13:58Z,42.805,6.029,13.2999,4.60009,2470.6,2021-5-13T13:15:09Z
2021-05-13T11:17:02Z,42.805,6.029,13.3000,4.60007,2470.637,2021-5-13T13:18:12Z
2021-05-13T11:20:05Z,42.805,6.029,13.3000,4.60008,2470.577,2021-5-13T13:21:16Z
2021-05-13T11:23:08Z,42.805,6.029,13.2999,4.60005,2470.577,2021-5-13T13:24:19Z
2021-05-13T11:26:11Z,42.805,6.029,13.2996,4.60009,2470.614,2021-5-13T13:27:22Z
2021-05-13T11:29:14Z,42.805,6.029,13.2993,4.60011,2470.614,2021-5-13T13:30:25Z
2021-05-13T11:32:17Z,42.805,6.029,13.3002,4.60011,2470.614,2021-5-13T13:33:28Z
2021-05-13T11:35:20Z,42.805,6.029,13.3000,4.60006,2470.624,2021-5-13T13:36:31Z
2021-05-13T11:38:23Z,42.805,6.029,13.3001,4.60004,2470.614,2021-5-13T13:39:34Z
2021-05-13T11:41:27Z,42.805,6.029,13.2997,4.60009,2470.6,2021-5-13T13:42:37Z
2021-05-13T11:44:30Z,42.805,6.029,13.2996,4.60014,2470.591,2021-5-13T13:45:41Z
2021-05-13T11:47:33Z,42.805,6.029,13.2995,4.60011,2470.577,2021-5-13T13:48:44Z
2021-05-13T11:50:36Z,42.805,6.029,13.2999,4.60010,2470.591,2021-5-13T13:51:47Z
2021-05-13T11:53:39Z,42.805,6.029,13.2997,4.60007,2470.577,2021-5-13T13:54:50Z
2021-05-13T11:56:42Z,42.805,6.029,13.2998,4.60009,2470.624,2021-5-13T13:57:53Z
2021-05-13T11:59:45Z,42.805,6.029,13.2998,4.60013,2470.6,2021-5-13T14:00:56Z
2021-05-13T12:02:48Z,42.805,6.029,13.3000,4.60012,2470.553,2021-5-13T14:03:59Z
2021-05-13T12:05:52Z,42.805,6.029,13.2998,4.60006,2470.614,2021-5-13T14:07:02Z
2021-05-13T12:08:55Z,42.805,6.029,13.2999,4.60007,2470.577,2021-5-13T14:10:06Z
2021-05-13T12:11:58Z,42.805,6.029,13.2996,4.60007,2470.577,2021-5-13T14:13:09Z
2021-05-13T12:15:01Z,42.805,6.029,13.2991,4.60006,2470.567,2021-5-13T14:16:12Z
2021-05-13T12:18:04Z,42.805,6.029,13.2996,4.60006,2470.6,2021-5-13T14:19:15Z
2021-05-13T12:21:07Z,42.805,6.029,13.2997,4.60003,2470.6,2021-5-13T14:22:18Z
2021-05-13T12:24:10Z,42.805,6.029,13.2997,4.60007,2470.553,2021-5-13T14:25:21Z
2021-05-13T12:27:13Z,42.805,6.029,13.2993,4.60007,2470.6,2021-5-13T14:28:24Z
2021-05-13T12:30:17Z,42.805,6.029,13.2995,4.60008,2470.577,2021-5-13T14:31:27Z
2021-05-13T12:33:20Z,42.805,6.029,13.2996,4.60013,2470.6,2021-5-13T14:34:31Z
2021-05-13T12:36:23Z,42.805,6.029,13.2996,4.60011,2470.577,2021-5-13T14:37:34Z
2021-05-13T12:39:26Z,42.805,6.029,13.2999,4.60014,2470.567,2021-5-13T14:40:37Z
2021-05-13T12:42:29Z,42.805,6.029,13.2998,4.60013,2470.53,2021-5-13T14:43:40Z
2021-05-13T12:45:32Z,42.805,6.029,13.2997,4.60011,2470.591,2021-5-13T14:46:43Z
2021-05-13T12:48:35Z,42.805,6.029,13.2993,4.60009,2470.553,2021-5-13T14:49:46Z
2021-05-13T12:51:38Z,42.805,6.029,13.2995,4.60010,2470.553,2021-5-13T14:52:49Z
2021-05-13T12:54:42Z,42.805,6.029,13.3000,4.60008,2470.577,2021-5-13T14:55:52Z
2021-05-13T12:57:45Z,42.805,6.029,13.2999,4.60009,2470.591,2021-5-13T14:58:56Z
2021-05-13T13:00:48Z,42.805,6.029,13.2995,4.60009,2470.577,2021-5-13T15:01:59Z
2021-05-13T13:03:51Z,42.805,6.029,13.2995,4.60012,2470.553,2021-5-13T15:05:02Z
2021-05-13T13:06:54Z,42.805,6.029,13.2993,4.60001,2470.553,2021-5-13T15:08:05Z
2021-05-13T13:09:57Z,42.805,6.029,13.2993,4.60008,2470.53,2021-5-13T15:11:08Z
2021-05-13T13:13:00Z,42.805,6.029,13.2998,4.60009,2470.553,2021-5-13T15:14:11Z
2021-05-13T13:16:03Z,42.805,6.029,13.3000,4.60009,2470.553,2021-5-13T15:17:14Z
2021-05-13T13:19:07Z,42.805,6.029,13.2998,4.60010,2470.544,2021-5-13T15:20:17Z
2021-05-13T13:22:10Z,42.805,6.029,13.2996,4.60003,2470.553,2021-5-13T15:23:21Z
2021-05-13T13:25:13Z,42.805,6.029,13.2996,4.60003,2470.52,2021-5-13T15:26:24Z
2021-05-13T13:28:16Z,42.805,6.029,13.2998,4.60016,2470.567,2021-5-13T15:29:27Z
2021-05-13T13:31:19Z,42.805,6.029,13.2996,4.60014,2470.553,2021-5-13T15:32:30Z
2021-05-13T13:34:22Z,42.805,6.029,13.2996,4.60011,2470.53,2021-5-13T15:35:33Z
2021-05-13T13:37:25Z,42.805,6.029,13.2994,4.60011,2470.577,2021-5-13T15:38:36Z
2021-05-13T13:40:28Z,42.805,6.029,13.2994,4.60006,2470.544,2021-5-13T15:41:39Z
2021-05-13T13:43:32Z,42.805,6.029,13.3000,4.60014,2470.567,2021-5-13T15:44:42Z
2021-05-13T13:46:35Z,42.805,6.029,13.2999,4.60014,2470.553,2021-5-13T15:47:46Z
2021-05-13T13:49:38Z,42.805,6.029,13.3000,4.60015,2470.553,2021-5-13T15:50:49Z
2021-05-13T13:52:41Z,42.805,6.029,13.2998,4.60006,2470.53,2021-5-13T15:53:52Z
2021-05-13T13:55:44Z,42.805,6.029,13.2996,4.60009,2470.53,2021-5-13T15:56:55Z
2021-05-13T13:58:47Z,42.805,6.029,13.3002,4.60014,2470.577,2021-5-13T15:59:58Z
2021-05-13T14:01:50Z,42.805,6.029,13.2997,4.60014,2470.577,2021-5-13T16:03:01Z
2021-05-13T14:04:54Z,42.805,6.029,13.2997,4.60014,2470.544,2021-5-13T16:06:04Z
2021-05-13T14:07:57Z,42.805,6.029,13.2996,4.60011,2470.53,2021-5-13T16:09:08Z
2021-05-13T14:11:00Z,42.805,6.029,13.2993,4.60006,2470.553,2021-5-13T16:12:11Z
2021-05-13T14:14:03Z,42.805,6.029,13.3002,4.60014,2470.553,2021-5-13T16:15:14Z
2021-05-13T14:17:06Z,42.805,6.029,13.2996,4.60013,2470.553,2021-5-13T16:18:17Z
2021-05-13T14:20:09Z,42.805,6.029,13.2998,4.60011,2470.53,2021-5-13T16:21:20Z
2021-05-13T14:23:12Z,42.805,6.029,13.2994,4.60008,2470.553,2021-5-13T16:24:23Z
2021-05-13T14:26:15Z,42.805,6.029,13.2993,4.60003,2470.553,2021-5-13T16:27:26Z
2021-05-13T14:29:19Z,42.805,6.029,13.2993,4.60006,2470.577,2021-5-13T16:30:29Z
2021-05-13T14:32:22Z,42.805,6.029,13.3000,4.60011,2470.567,2021-5-13T16:33:33Z
2021-05-13T14:35:25Z,42.805,6.029,13.2992,4.60009,2470.553,2021-5-13T16:36:36Z
2021-05-13T14:38:28Z,42.805,6.029,13.2995,4.60013,2470.591,2021-5-13T16:39:39Z
2021-05-13T14:41:31Z,42.805,6.029,13.2994,4.60011,2470.6,2021-5-13T16:42:42Z
2021-05-13T14:44:34Z,42.805,6.029,13.2998,4.60016,2470.577,2021-5-13T16:45:45Z
2021-05-13T14:47:37Z,42.805,6.029,13.2998,4.60003,2470.53,2021-5-13T16:48:48Z
2021-05-13T14:50:40Z,42.805,6.029,13.2995,4.60003,2470.553,2021-5-13T16:51:51Z
2021-05-13T14:53:44Z,42.805,6.029,13.2998,4.60005,2470.544,2021-5-13T16:54:54Z
2021-05-13T14:56:47Z,42.805,6.029,13.2999,4.60015,2470.553,2021-5-13T16:57:58Z
2021-05-13T14:59:50Z,42.805,6.029,13.3001,4.60016,2470.553,2021-5-13T17:01:01Z
2021-05-13T15:02:53Z,42.805,6.029,13.2998,4.60004,2470.577,2021-5-13T17:04:04Z
2021-05-13T15:05:56Z,42.805,6.029,13.2999,4.60013,2470.567,2021-5-13T17:07:07Z
2021-05-13T15:08:59Z,42.805,6.029,13.2992,4.60011,2470.53,2021-5-13T17:10:10Z
2021-05-13T15:12:02Z,42.805,6.029,13.2996,4.60020,2470.567,2021-5-13T17:13:13Z
2021-05-13T15:15:05Z,42.805,6.029,13.2997,4.60011,2470.553,2021-5-13T17:16:16Z